Weather History for Wichita Jabara, KS

Change the Weather History Date:

Friday, October 5, 2012

  Actual Average (KICT) Record (KICT)
Temperature  
Mean Temperature 46 °F 62 °F  
Max Temperature 57 °F 74 °F 95 °F (1947)
Min Temperature 37 °F 51 °F 36 °F (1991)
Degree Days  
Heating Degree Days 19 5  
Month to date heating degree days 22  
Since 1 July heating degree days 65  
Cooling Degree Days 0 2  
Month to date cooling degree days 13  
Year to date cooling degree days 1662  
Moisture  
Dew Point 33 °F    
Average Humidity 56    
Maximum Humidity 79    
Minimum Humidity 30    
Precipitation  
Precipitation 0.00 in 0.10 in 0.97 in (2001)
Month to date precipitation 0.53  
Year to date precipitation 27.76  
Snow  
Snow 0.00 in 0.00 in 0.00 in (2007)
Month to date snowfall 0.0  
Since 1 July snowfall 0.0  
Since 1 September snowfall 0.0  
Snow Depth -    
Sea Level Pressure  
Sea Level Pressure 30.26 in    
Wind  
Wind Speed 11 mph (NNE)    
Max Wind Speed 22 mph    
Max Gust Speed 28 mph    
Visibility 10 miles    
Events      
T = Trace of Precipitation, MM = Missing Value Source: NWS Daily Summary

Daily Weather History Graph

Daily Weather History Graph

Search for Another Location

Airport:

Trip Planner

Search our weather history database for the weather conditions in past years. The results will help you decide how hot, cold, wet, or windy it might be!

Date:

Astronomy

Oct. 05, 2012 Rise Set
Actual Time 7:28 AM CDT 7:05 PM CDT
Civil Twilight 7:02 AM CDT 7:31 PM CDT
Nautical Twilight 6:31 AM CDT 8:01 PM CDT
Astronomical Twilight 6:01 AM CDT 8:32 PM CDT
Moon 10:34 PM CDT (10/5) 12:32 PM CDT (10/5)
Length of Visible Light 12h 29m
Length of Day
11h 36m
Waning Gibbous, 74% of the Moon is Illuminated
Oct 5
Waning Gibbous
Oct 8
Last Quarter
Oct 15
New
Oct 21
First Quarter
Oct 29
Full

Hourly Weather History & Observations

Time (CDT) Temp. Windchill Dew Point Humidity Pressure Visibility Wind Dir Wind Speed Gust Speed Precip Events Conditions
12:54 AM 51.1 °F - 39.9 °F 66% 30.24 in 10.0 mi NNE 6.9 mph - N/A   Overcast
1:54 AM 52.0 °F - 39.9 °F 63% 30.23 in 10.0 mi NNE 5.8 mph - N/A   Overcast
2:54 AM 51.1 °F - 41.0 °F 68% 30.24 in 10.0 mi NNE 9.2 mph - N/A   Overcast
3:54 AM 51.1 °F - 39.9 °F 66% 30.22 in 10.0 mi NNE 9.2 mph - N/A   Overcast
4:54 AM 50.0 °F - 36.0 °F 59% 30.23 in 10.0 mi NNE 11.5 mph - N/A   Overcast
5:54 AM 48.9 °F - 34.0 °F 56% 30.24 in 10.0 mi NNE 10.4 mph - N/A   Overcast
6:54 AM 48.0 °F - 33.1 °F 56% 30.24 in 10.0 mi NNE 13.8 mph 20.7 mph N/A   Overcast
7:54 AM 48.0 °F - 34.0 °F 58% 30.25 in 10.0 mi NNE 10.4 mph - 0.00 in   Overcast
8:54 AM 48.0 °F - 33.1 °F 56% 30.24 in 10.0 mi NE 13.8 mph - N/A   Overcast
9:54 AM 48.9 °F - 33.1 °F 54% 30.25 in 10.0 mi NE 12.7 mph - N/A   Overcast
10:54 AM 51.1 °F - 33.1 °F 50% 30.26 in 10.0 mi NNE 15.0 mph - N/A   Overcast
11:54 AM 55.0 °F - 33.1 °F 43% 30.28 in 10.0 mi NNE 15.0 mph - N/A   Overcast
12:54 PM 55.0 °F - 34.0 °F 45% 30.27 in 10.0 mi North 15.0 mph - N/A   Overcast
1:54 PM 55.9 °F - 30.9 °F 39% 30.25 in 10.0 mi NNE 19.6 mph 27.6 mph N/A   Clear
2:54 PM 55.9 °F - 30.0 °F 37% 30.23 in 10.0 mi North 18.4 mph 27.6 mph N/A   Clear
3:54 PM 55.9 °F - 25.0 °F 30% 30.22 in 10.0 mi NE 17.3 mph 25.3 mph N/A   Partly Cloudy
4:54 PM 55.0 °F - 28.0 °F 35% 30.22 in 10.0 mi NE 13.8 mph - N/A   Clear
5:54 PM 53.1 °F - 33.1 °F 47% 30.24 in 10.0 mi NNE 21.9 mph 27.6 mph N/A   Clear
6:54 PM 48.9 °F - 32.0 °F 52% 30.27 in 10.0 mi NNE 15.0 mph 21.9 mph N/A   Clear
7:54 PM 45.0 °F 40.6 °F 32.0 °F 60% 30.29 in 10.0 mi NNE 8.1 mph - N/A   Clear
8:54 PM 39.9 °F 35.8 °F 32.0 °F 73% 30.31 in 10.0 mi North 5.8 mph - N/A   Clear
9:54 PM 39.9 °F 35.1 °F 32.0 °F 73% 30.33 in 10.0 mi North 6.9 mph - N/A   Clear
10:54 PM 37.9 °F 33.5 °F 32.0 °F 79% 30.33 in - North 5.8 mph - N/A   Clear
11:54 PM 39.9 °F 36.7 °F 32.0 °F 73% 30.33 in 10.0 mi North 4.6 mph - N/A   Clear